Wind_Speed
6 8 10 11 12 12 13 14 15 17 19 19 20 21 22 23 24 23 24 26 26 27 27 27 27 27 29 30 30 30 30 31 32 32 31 32 32 32 31 31 32 33 33 33
5 6 8 10 10 11 11 12 14 15 16 18 18 19 20 22 22 22 22 24 26 28 27 27 28 28 28 29 29 31 32 32 33 33 33 33 34 34 33 33 33 33 34 34
3 4 6 8 8 9 10 11 13 13 14 16 17 18 19 20 21 21 21 23 24 27 27 27 27 27 28 28 29 29 31 31 33 34 34 35 35 35 34 35 34 34 34 34
2 3 4 6 7 8 9 11 12 12 13 15 16 16 17 18 19 20 20 21 23 25 26 27 27 27 28 29 30 31 31 32 32 33 35 36 37 37 36 36 35 36 35 35
1 2 3 5 5 6 8 9 10 11 12 13 14 16 16 17 18 19 19 21 22 24 25 26 27 28 29 29 30 31 32 32 33 34 35 35 36 36 36 35 36 35 36 35
2 3 3 4 5 5 7 8 10 11 12 13 13 14 14 14 16 17 18 20 21 22 23 25 26 27 29 30 31 32 33 34 34 34 34 34 34 35 36 36 36 35 35 35
2 3 4 4 5 6 7 8 9 10 12 12 12 13 14 14 15 16 17 19 20 21 22 24 25 27 28 29 30 32 34 34 35 34 34 34 35 36 36 36 36 36 36 36
3 4 4 4 5 5 6 7 9 10 11 11 12 13 13 13 15 17 18 19 20 22 23 25 26 28 29 30 31 33 34 34 34 34 34 35 35 36 36 37 37 37 37 38
4 5 5 5 5 6 7 7 9 10 10 11 12 12 13 14 15 17 19 20 20 22 24 25 26 28 29 30 31 32 34 34 34 35 35 36 36 37 37 37 37 37 38 39
6 6 6 7 7 7 8 9 10 11 11 12 12 12 13 15 17 18 19 21 22 23 24 26 27 28 29 30 31 33 34 35 35 36 37 37 37 38 39 39 39 40 41 42
8 8 8 8 9 9 9 10 12 13 13 14 14 14 15 17 18 19 20 21 22 23 24 26 27 28 29 30 31 32 34 35 36 37 38 38 38 39 40 41 41 42 43 44
10 10 10 10 10 11 11 12 13 14 15 15 16 15 16 18 19 21 22 22 23 24 25 26 27 28 29 30 31 33 34 35 36 37 38 39 40 40 41 41 43 44 45 46
12 12 13 13 13 13 14 14 16 17 17 17 18 17 18 20 21 22 23 24 25 26 27 28 28 29 29 30 32 33 34 35 36 37 38 39 40 40 41 42 43 44 46 47
15 14 14 15 16 16 17 17 18 19 20 20 19 19 20 22 24 24 25 25 26 27 28 29 29 30 31 32 33 34 35 36 36 37 38 39 40 41 42 43 44 45 46 47
18 18 18 18 18 19 19 20 21 21 22 22 21 21 21 24 25 25 26 26 27 27 28 29 30 31 32 32 33 34 35 36 36 37 38 39 40 42 43 45 46 47 48 49
22 22 21 21 22 22 22 22 23 23 24 24 24 23 24 26 26 27 27 27 28 28 29 30 31 32 32 33 34 35 36 37 37 38 40 41 42 43 45 47 48 48 49 51
24 24 25 25 25 26 25 24 26 26 26 27 27 27 27 28 28 28 29 29 29 30 30 31 32 33 33 34 35 37 38 39 39 40 41 43 44 45 47 48 49 50 51 52
27 27 28 28 28 29 27 27 28 28 28 29 29 29 30 30 30 30 30 31 31 31 32 33 33 34 35 35 37 38 39 40 41 42 43 45 46 48 49 50 51 52 53 54
30 30 31 31 31 31 30 29 30 30 30 30 31 31 32 31 31 31 31 32 32 33 34 34 35 36 36 37 38 39 40 42 43 44 45 46 47 49 49 50 52 53 54 55
33 33 34 34 35 34 32 32 32 33 33 32 32 33 33 32 32 33 33 34 34 35 35 36 37 37 38 39 40 41 42 43 45 46 47 48 49 50 51 52 53 54 55 55
35 36 36 36 37 37 35 34 34 35 35 34 34 34 34 34 34 34 35 35 36 37 37 38 39 40 41 42 42 43 44 46 47 48 49 50 50 51 52 53 54 55 56 57
38 38 38 37 38 38 37 37 37 37 37 36 36 36 36 36 36 36 36 37 38 39 40 41 42 42 43 44 45 46 47 48 49 49 50 50 51 52 53 54 55 56 57 58
40 40 39 39 39 39 39 39 39 39 39 39 38 39 39 39 39 39 40 40 41 42 42 43 44 45 46 47 48 48 49 49 50 50 50 51 52 53 54 55 56 56 57 57
42 41 41 41 39 40 41 41 41 41 41 41 41 41 41 41 41 42 42 43 43 44 45 46 47 48 48 49 49 49 50 50 50 50 51 52 53 54 55 55 55 56 56 57
43 43 42 42 41 42 42 43 43 43 43 43 43 43 43 43 43 43 44 44 45 46 47 48 48 48 49 49 49 49 50 50 51 52 52 53 54 54 54 54 55 55 56 56
43 43 44 43 43 44 44 44 45 45 45 45 45 45 45 45 45 45 45 45 46 46 47 47 47 48 48 48 49 49 50 51 52 52 53 53 53 53 54 54 54 54 55 55
Wind_Direction
226 225 227 226 225 226 225 225 225 224 221 222 221 218 220 221 220 220 220 221 222 225 229 232 234 238 240 242 244 247 249 251 253 256 258 262 265 268 271 273 271 271 273 274
219 228 231 228 227 222 219 220 220 217 216 221 222 220 219 219 220 222 224 224 226 228 231 233 236 240 242 244 246 248 249 253 255 257 260 264 267 269 270 270 272 273 273 274
225 224 225 223 222 215 210 214 214 213 215 218 221 222 223 221 224 226 228 229 231 233 235 236 240 245 246 245 246 248 250 253 256 258 261 264 267 270 271 271 271 273 274 275
230 217 216 215 218 220 213 210 210 212 217 219 220 224 226 229 232 233 234 235 236 238 240 241 243 246 247 248 250 253 256 257 258 260 263 265 266 268 271 271 272 272 274 275
235 223 220 211 216 219 215 210 208 214 218 223 224 228 229 234 236 239 239 240 240 242 243 243 244 247 249 251 255 257 259 260 261 264 266 267 267 268 270 273 274 274 274 275
240 228 215 212 215 220 222 216 214 217 222 226 228 234 236 238 242 245 244 245 246 246 245 244 246 249 251 254 257 260 262 263 265 267 268 268 269 271 273 275 277 276 276 276
255 230 224 224 223 223 224 223 224 226 228 230 232 239 244 246 246 248 249 249 249 250 250 249 250 253 255 257 259 262 264 265 266 267 268 269 270 272 273 275 276 276 276 277
272 255 243 237 236 235 232 233 237 240 239 239 237 242 244 248 251 252 254 255 255 253 253 254 255 258 260 261 262 264 265 266 267 268 269 270 271 272 273 275 276 276 277 277
283 271 257 253 249 250 242 242 246 248 246 247 246 248 247 250 253 255 256 258 260 258 256 256 260 262 263 264 265 266 266 267 268 269 270 271 271 272 273 274 276 276 277 278
284 280 269 260 259 255 255 256 255 255 257 256 254 254 254 255 258 259 258 259 262 263 261 262 264 266 266 267 267 267 268 269 270 271 271 273 273 273 273 274 276 277 278 278
287 281 277 273 268 269 265 260 260 261 261 264 263 262 261 261 261 261 261 262 263 265 267 267 267 269 269 269 269 269 270 271 272 273 273 273 274 274 275 276 276 278 279 279
285 282 278 276 275 272 270 268 266 267 267 267 268 269 265 265 265 265 266 266 265 267 268 269 270 271 271 272 272 273 274 274 274 275 275 274 274 275 276 277 277 278 279 280
286 283 279 275 274 275 275 274 272 271 271 271 272 272 272 272 270 270 270 269 268 269 270 272 272 272 273 273 273 274 275 275 276 276 277 276 275 276 278 279 279 280 281 282
283 281 279 277 276 276 275 275 274 274 274 274 276 276 275 274 274 273 272 271 271 271 273 274 274 274 274 274 275 276 277 277 277 277 277 278 277 278 279 281 281 282 282 283
280 278 276 276 276 276 276 277 277 277 277 278 279 279 278 277 277 276 275 273 272 272 274 274 274 275 275 276 276 277 278 278 279 279 278 278 279 279 281 282 283 283 284 284
278 277 276 274 275 276 276 277 278 278 278 279 278 279 279 279 279 278 277 276 274 273 274 274 275 276 276 277 278 279 279 279 280 280 279 279 279 280 282 283 283 284 284 285
278 278 278 276 275 276 276 277 277 278 278 278 278 277 276 278 279 279 278 277 276 276 277 276 276 277 278 278 279 280 280 280 280 281 280 281 282 282 284 285 285 286 287 288
278 278 279 278 277 276 279 278 278 279 278 278 277 277 276 277 278 279 278 278 278 278 278 278 278 278 279 280 280 281 281 282 282 282 282 282 283 284 285 286 287 288 288 289
278 278 279 279 278 278 279 279 278 278 278 278 278 277 277 278 278 278 278 278 278 278 278 279 280 280 280 281 282 282 283 283 284 285 285 285 285 286 287 288 288 289 289 290
278 278 278 278 278 279 280 279 279 279 278 278 279 279 278 278 277 277 277 278 278 279 279 280 280 281 281 282 283 284 284 285 286 287 287 287 288 288 288 289 289 290 290 291
276 277 277 278 278 278 279 279 279 279 280 279 279 280 279 279 278 278 278 278 278 278 279 280 280 282 283 283 284 285 286 287 287 288 288 288 289 289 289 289 290 291 291 292
275 276 276 277 277 278 278 278 277 278 278 279 279 279 279 279 278 278 278 278 278 279 280 280 281 282 284 284 285 286 287 287 288 288 288 288 289 289 290 290 291 291 292 292
274 275 276 276 277 277 277 276 277 277 278 278 278 278 279 279 279 279 278 279 279 280 280 281 282 283 285 286 286 287 288 288 289 289 289 289 289 290 291 291 292 292 292 292
273 273 274 275 275 275 275 276 276 277 277 278 278 278 278 279 280 280 279 279 280 281 281 282 284 285 286 287 287 288 288 289 289 290 290 290 291 291 291 292 292 293 293 293
272 273 274 274 275 274 275 275 276 277 277 277 278 279 279 280 280 280 280 280 281 282 282 283 285 286 287 287 288 288 289 289 290 290 291 292 292 292 292 292 293 293 293 294
272 273 274 273 273 274 274 274 275 276 277 278 279 279 280 280 280 280 281 282 282 283 284 284 285 286 287 288 288 289 289 290 291 291 292 292 292 293 293 294 294 294 294 294
Height
5716 5718 5718 5720 5721 5722 5723 5725 5727 5728 5730 5733 5735 5738 5741 5743 5746 5750 5753 5757 5761 5764 5767 5770 5773 5775 5777 5779 5781 5783 5785 5786 5787 5787 5787 5788 5788 5787 5787 5787 5787 5786 5785 5785
5718 5718 5719 5719 5720 5721 5722 5724 5726 5728 5730 5732 5734 5737 5739 5741 5744 5747 5750 5753 5757 5759 5762 5765 5767 5769 5771 5773 5775 5777 5778 5779 5780 5780 5780 5780 5780 5780 5780 5780 5779 5778 5778 5777
5718 5719 5718 5719 5720 5721 5722 5724 5726 5728 5729 5731 5733 5736 5738 5740 5742 5745 5747 5750 5753 5755 5758 5760 5762 5763 5765 5767 5768 5770 5771 5772 5772 5773 5773 5773 5773 5772 5772 5772 5772 5770 5770 5769
5718 5718 5719 5720 5720 5721 5723 5724 5725 5727 5729 5730 5732 5734 5736 5738 5740 5742 5744 5746 5748 5750 5752 5754 5756 5758 5759 5760 5762 5763 5764 5764 5765 5765 5766 5765 5765 5765 5764 5764 5763 5762 5761 5761
5719 5719 5719 5720 5721 5721 5723 5723 5725 5726 5727 5729 5731 5733 5735 5735 5737 5739 5741 5742 5744 5745 5747 5748 5750 5751 5753 5754 5755 5756 5757 5757 5757 5758 5757 5757 5757 5757 5756 5755 5755 5754 5753 5752
5720 5720 5720 5721 5721 5721 5722 5724 5725 5725 5726 5728 5729 5731 5733 5733 5735 5736 5737 5738 5739 5740 5741 5742 5744 5745 5747 5748 5748 5749 5749 5750 5749 5750 5749 5749 5749 5748 5747 5747 5746 5745 5744 5744
5720 5720 5720 5721 5721 5721 5722 5724 5725 5725 5725 5727 5728 5728 5731 5731 5732 5732 5733 5734 5735 5735 5736 5737 5738 5739 5740 5741 5741 5741 5742 5742 5742 5742 5741 5741 5741 5740 5739 5738 5737 5737 5736 5735
5721 5721 5721 5721 5721 5721 5722 5723 5724 5725 5725 5726 5726 5726 5729 5728 5728 5729 5729 5730 5730 5731 5731 5732 5732 5733 5733 5733 5734 5734 5734 5734 5734 5734 5734 5733 5733 5732 5731 5730 5729 5728 5727 5726
5721 5721 5721 5721 5721 5721 5721 5722 5723 5723 5723 5724 5724 5725 5726 5725 5725 5725 5725 5725 5725 5726 5726 5726 5726 5726 5726 5726 5726 5726 5726 5726 5726 5726 5725 5724 5724 5723 5722 5721 5720 5719 5718 5717
5721 5721 5721 5721 5720 5721 5721 5721 5721 5721 5721 5721 5722 5722 5722 5721 5721 5721 5721 5721 5720 5720 5720 5720 5720 5719 5719 5719 5719 5718 5718 5718 5717 5717 5716 5715 5714 5714 5713 5712 5710 5709 5708 5706
5720 5721 5720 5720 5719 5719 5719 5719 5718 5718 5718 5718 5718 5721 5718 5717 5717 5716 5716 5716 5716 5715 5714 5714 5713 5713 5712 5712 5711 5711 5711 5710 5709 5708 5707 5706 5705 5704 5703 5702 5700 5699 5697 5696
5718 5719 5718 5718 5718 5717 5717 5716 5716 5716 5715 5714 5714 5718 5713 5712 5711 5711 5710 5710 5710 5709 5708 5707 5707 5706 5705 5704 5704 5703 5702 5701 5700 5699 5698 5696 5695 5694 5693 5692 5690 5689 5687 5685
5716 5716 5716 5715 5717 5715 5714 5713 5712 5712 5711 5710 5710 5713 5709 5707 5706 5705 5704 5704 5703 5702 5702 5701 5700 5699 5698 5697 5696 5695 5694 5693 5691 5690 5688 5687 5686 5685 5683 5681 5680 5678 5675 5673
5713 5712 5713 5713 5711 5710 5710 5709 5708 5707 5706 5706 5706 5706 5704 5701 5700 5699 5698 5697 5696 5696 5695 5694 5692 5691 5690 5689 5688 5687 5685 5684 5682 5680 5679 5678 5676 5674 5673 5671 5668 5666 5663 5661
5708 5708 5707 5707 5706 5705 5705 5704 5703 5702 5701 5700 5700 5699 5698 5695 5694 5693 5691 5690 5689 5688 5687 5686 5685 5683 5682 5681 5679 5678 5676 5674 5673 5671 5669 5668 5666 5664 5661 5659 5656 5654 5651 5648
5703 5702 5702 5702 5701 5699 5699 5699 5697 5696 5695 5694 5693 5692 5691 5688 5687 5685 5684 5683 5682 5681 5679 5678 5677 5675 5673 5672 5670 5668 5667 5665 5663 5661 5659 5657 5654 5652 5650 5647 5644 5641 5638 5635
5696 5696 5695 5695 5694 5693 5693 5693 5691 5689 5688 5687 5685 5686 5683 5681 5680 5678 5677 5675 5674 5673 5671 5670 5668 5666 5664 5662 5661 5659 5656 5654 5652 5650 5648 5645 5643 5640 5637 5634 5631 5628 5624 5621
5689 5688 5687 5686 5687 5685 5688 5684 5683 5681 5680 5678 5677 5676 5675 5673 5672 5670 5669 5667 5666 5664 5662 5660 5659 5657 5655 5653 5651 5648 5646 5643 5641 5638 5636 5633 5631 5628 5624 5621 5617 5613 5610 5606
5681 5680 5679 5678 5676 5676 5678 5676 5674 5672 5671 5670 5668 5667 5665 5664 5663 5661 5660 5658 5657 5655 5653 5651 5649 5647 5645 5642 5640 5637 5635 5632 5629 5626 5624 5620 5617 5614 5610 5607 5603 5599 5595 5591
5672 5671 5670 5668 5667 5667 5669 5667 5664 5664 5662 5661 5659 5657 5656 5655 5654 5653 5650 5649 5647 5645 5643 5641 5639 5636 5634 5631 5629 5626 5623 5620 5617 5614 5611 5607 5603 5600 5596 5592 5588 5583 5579 5575
5662 5661 5660 5658 5656 5657 5658 5656 5654 5654 5653 5651 5649 5647 5646 5645 5644 5642 5640 5638 5636 5634 5632 5630 5628 5625 5623 5620 5617 5614 5611 5608 5604 5601 5597 5593 5589 5585 5581 5577 5573 5568 5564 5559
5651 5650 5649 5648 5646 5648 5646 5645 5644 5643 5641 5639 5638 5636 5635 5634 5632 5631 5629 5627 5625 5623 5621 5618 5616 5613 5611 5608 5605 5602 5598 5595 5591 5587 5583 5579 5575 5571 5566 5562 5557 5552 5547 5543
5640 5639 5638 5637 5638 5635 5633 5632 5631 5630 5629 5628 5626 5625 5624 5622 5621 5619 5617 5615 5613 5611 5609 5606 5603 5601 5598 5595 5591 5588 5584 5581 5577 5573 5569 5565 5560 5556 5551 5546 5542 5537 5531 5526
5627 5626 5625 5625 5625 5623 5621 5620 5619 5618 5617 5615 5614 5613 5611 5610 5608 5607 5605 5603 5601 5598 5596 5593 5590 5587 5584 5581 5577 5574 5570 5566 5563 5559 5554 5550 5545 5541 5536 5531 5526 5521 5515 5510
5615 5613 5612 5612 5613 5610 5609 5607 5606 5605 5603 5602 5601 5599 5598 5597 5595 5593 5591 5589 5587 5584 5582 5579 5576 5573 5570 5566 5563 5559 5556 5552 5548 5544 5540 5535 5530 5525 5521 5516 5511 5505 5500 5493
5603 5601 5599 5599 5599 5597 5597 5595 5593 5591 5590 5589 5587 5586 5585 5583 5581 5579 5577 5575 5573 5570 5568 5565 5562 5559 5555 5552 5548 5545 5541 5537 5533 5529 5524 5519 5515 5510 5505 5500 5496 5490 5484 5478